Regional Weather Roundup
Issued by NWS

Home | Current Version | Previous Version | Text Only | Print | Product List | Glossary On
Versions: 1 2 3 4 5 6 7 8 9 10 11 12 13 14 15 16 17 18 19 20 21 22 23 24 25 26 27 28 29 30 31 32 33 34 35 36 37 38 39 40 41 42 43 44 45 46 47 48 49 50
000
ASUS43 KMPX 250710
RWRMN
WEATHER ROUNDUP FOR MINNESOTA
NATIONAL WEATHER SERVICE TWIN CITIES/CHANHASSEN MN
200 AM CDT WED APR 25 2018


NOTE: "FAIR" INDICATES FEW OR NO CLOUDS BELOW 12,000 FEET WITH NO
SIGNIFICANT WEATHER AND/OR OBSTRUCTIONS TO VISIBILITY. N/A MEANS
CURRENT SKY AND/OR WEATHER CONDITIONS ARE NOT AVAILABLE.

MNZ060>063-068>070-250800-
   Twin Cities Metro

CITY           SKY/WX    TMP DP  RH WIND       PRES   REMARKS
TWIN CITIES    FAIR      43  28  55 N10       30.25R
ST PAUL        FAIR      43  27  53 N7        30.26R
CRYSTAL        FAIR      41  25  53 N7        30.25R
BLAINE         FAIR      41  27  56 N8        30.25S
LAKEVILLE      FAIR      43  28  56 N8        30.23S
EDEN PRAIRIE   FAIR      44  26  49 N9        30.24R
SOUTH ST PAUL  FAIR      44  27  51 N7        30.24R
LAKE ELMO      FAIR      39  28  65 N5        30.25S
$$
MNZ001>005-007-008-013>017-022>024-027-028-250800-
   Northwest Minnesota

CITY           SKY/WX    TMP DP  RH WIND       PRES   REMARKS
BEMIDJI        FAIR      25  19  78 CALM      30.30F
HALLOCK        FAIR      30  25  80 S7        30.26F WCI  23
ROSEAU         FAIR      34  27  75 S9        30.26F WCI  26
WARROAD        FAIR      32  27  80 S3        30.27F
THIEF RVR FALL FAIR      33  26  75 S7        30.29F WCI  27
CROOKSTON      FAIR      30  27  86 S5        30.30F WCI  25
FOSSTON        FAIR      27  16  63 CALM      30.30F
DETROIT LAKES  FAIR      32  28  86 CALM      30.31F
MOORHEAD       FAIR      32  27  80 CALM      30.32F
PARK RAPIDS    FAIR      28  22  78 W3        30.29F
MAHNOMEN       FAIR      32  27  81 SE5       30.30F WCI  27
$$
MNZ006-009>011-018-025>026-250800-
   North Central Minnesota

CITY           SKY/WX    TMP DP  RH WIND       PRES   REMARKS
BAUDETTE       FAIR      30  21  69 S5        30.26F WCI  25
FLAG ISLAND    FAIR      28  21  74 S3        30.25F
INTL FALLS     FAIR      22  20  92 CALM      30.28F
WASKISH        FAIR      23  21  93 CALM      30.29F
BIG FORK       FAIR      25  21  86 CALM      30.29F
LONGVILLE      FAIR      28  23  80 CALM      30.29F
GRAND RAPIDS   FAIR      28  22  78 CALM      30.30F
CRANE LAKE     FAIR      21  19  93 CALM      30.31S
ORR            FAIR      27  21  80 CALM      30.26F
COOK           FAIR      25  21  86 CALM      30.28F
WALKER         FAIR      27  20  75 W3        30.30F
$$
MNZ012-019>021-037-250800-
   Northeast Minnesota

CITY           SKY/WX    TMP DP  RH WIND       PRES   REMARKS
DULUTH         FAIR      32  21  64 N5        30.27S WCI  27
ELY            FAIR      25  19  80 CALM      30.27F
HIBBING        FAIR      23  19  85 CALM      30.28S
EVELETH        FAIR      27  22  80 CALM      30.28S
DULUTH HARBOR  FAIR      36  28  75 N9        30.30R
TWO HARBORS    FAIR      30  25  80 CALM      30.26R
SILVER BAY     FAIR      28  23  80 CALM      30.26R
GRAND MARAIS     N/A     29  23  78 NW3       30.28S
G MARAIS ARPRT FAIR      27  19  74 CALM      30.23S
$$
MNZ029>031-032-039>041-046>048-054>057-064-250800-
   West Central Minnesota

CITY           SKY/WX    TMP DP  RH WIND       PRES   REMARKS
FERGUS FALLS   FAIR      36  27  69 NE3       30.30F
WHEATON        CLEAR     34  28  80 CALM      30.34S
MORRIS         CLEAR     34  28  80 N6        30.30S WCI  29
ALEXANDRIA     FAIR      37  24  59 NE8       30.30S
ELBOW LAKE     FAIR      33  27  77 E5        30.31S WCI  29
WADENA         FAIR      32  25  74 N6        30.30R WCI  26
GLENWOOD       FAIR      34  25  69 N7        30.30R WCI  28
APPLETON       CLEAR     36  28  75 CALM      30.31S
BENSON         CLEAR     30  27  86 N3        30.32R
ORTONVILLE     CLEAR     36  28  75 NW5       30.31F
WILLMAR        FAIR      34  28  80 CALM      30.32R
$$
MNZ033>034-036-042>043-049>051-058-059-250800-
   Central Minnesota

CITY           SKY/WX    TMP DP  RH WIND       PRES   REMARKS
ST CLOUD       FAIR      34  27  75 N7        30.28R WCI  28
SAUK CENTRE    FAIR      34  24  66 N5        30.30R WCI  30
PAYNESVILLE    FAIR      36  28  74 N6        30.29R
AITKIN         FAIR      25  21  86 CALM      30.29S
PINE RIVER     FAIR      27  21  80 CALM      30.33R
BRAINERD       FAIR      30  22  72 CALM      30.30R
STAPLES        FAIR      30  23  74 N3        30.30R
LONG PRAIRIE   FAIR      34  25  69 NW6       30.30R WCI  29
LITTLE FALLS   FAIR      34  19  55 CALM      30.30R
LITCHFIELD     FAIR      37  28  70 N7        30.28R
BUFFALO        FAIR      40  26  58 N7        30.27R
MAPLE LAKE     FAIR      37  30  75 N6        30.28R
HUTCHINSON     FAIR      38  30  72 NW9       30.28S
$$
MNZ037-044-045-052-053-250800-
   East Central Minnesota

CITY           SKY/WX    TMP DP  RH WIND       PRES   REMARKS
PRINCETON      FAIR      36  27  69 N5        30.28R
MORA           FAIR      36  25  64 CALM      30.30R
CAMBRIDGE      FAIR      41  27  56 N6        30.28R
RUSH CITY      FAIR      34  25  70 N7        30.28R WCI  28
MOOSE LAKE     FAIR      32  23  69 N3        30.26R
HINCKLEY       FAIR      34  27  75 N6        30.28S WCI  29
CLOQUET        FAIR      30  19  64 NW6       30.27S WCI  24
MCGREGOR       FAIR      28  23  80 CALM      30.30R
$$
MNZ071>073-080-081-089-090-097-098-250800-
   Southwest Minnesota

CITY           SKY/WX    TMP DP  RH WIND       PRES   REMARKS
MONTEVIDEO     CLEAR     36  28  75 N5        30.31R
GRANITE FALLS  CLEAR     38  32  78 NW10      30.32R
CANBY          CLEAR     36  31  83 NW7       30.32S
MARSHALL       CLEAR     35  30  82 NW8       30.30S WCI  29
REDWOOD FALLS  CLEAR     38  30  73 NW7       30.28R
OLIVIA         CLEAR     34  32  93 N7        30.28R WCI  28
PIPESTONE      CLEAR    N/A N/A N/A N6        30.28S
WINDOM         CLEAR     37  21  52 N15       30.25F
WORTHINGTON    CLEAR     35  31  85 N12       30.26S WCI  27
JACKSON        CLOUDY    37  32  81 N9        30.25S
TRACY          CLEAR     37  33  84 NW12      30.28S
SLAYTON        CLEAR     36  31  82 N12G18    30.28S
$$
MNZ065>067-074>077-082>085-091>093-250800-
   South Central Minnesota

CITY           SKY/WX    TMP DP  RH WIND       PRES   REMARKS
MANKATO        FAIR      40  31  70 N13       30.24S
NEW ULM        CLEAR     41  28  60 N7        30.26R
ST JAMES       CLEAR     36  32  87 NW9       30.26R
FAIRMONT       CLOUDY    39  33  79 NW10      30.24S
GLENCOE        FAIR      39  32  75 NW5       30.26R
OWATONNA       FAIR      36  30  80 CALM      30.22S
WASECA         FAIR      36  32  87 N7        30.23S
ALBERT LEA     FAIR      43  30  61 N6        30.21R
$$
MNZ078>079-086>088-094>096-250800-
   Southeast Minnesota

CITY           SKY/WX    TMP DP  RH WIND       PRES   REMARKS
ROCHESTER      FAIR      38  34  85 NW8       30.19S
RED WING       FAIR      45  25  45 N9        30.21R
STANTON        FAIR      40  31  69 N7        30.21R
DODGE CENTER   FAIR      39  30  70 N8        30.20S
WINONA         FAIR      41  36  81 CALM      30.17S
AUSTIN         FAIR      39  34  81 N6        30.19F
PRESTON        FAIR      40  33  77 N7        30.18S
$$
ABBREVIATIONS USED IN REMARKS
   TC - TEMPERATURES IN CELSIUS
  WCI - WIND CHILL INDEX
   HX - HEAT INDEX
  VSB - VISIBILITY
$$




USA.gov is the U.S. government's official web portal to all federal, state and local government web resources and services.